PARASOL

导读

PARASOL卫星是法国Myriade微卫星系列的第二颗卫星,于2004年12月18日在法属圭亚那库鲁航天中心发射。它全称为“通过激光雷达观测大气科学的反射率极化和各项异性”卫星,核心任务是研究大气气溶胶特性及其与云的相互作用,帮助人类深化对地球气候系统的认知。该卫星加入了轨道观测“列车A”星座,与其他五颗卫星协同开展大气观测,为全球气候变化研究提供了关键数据支撑,是法国微卫星技术应用于大气科学领域的重要实践。

基本信息
目录编号:
28498
目录名称:
PARASOL
国际标识:
2004-049G
轨道中心:
EARTH
卫星名称:
PARASOL
卫星全名:
--
卫星状态:
在轨 (已飞行7878 天)
发射日期:
2004-12-18 UTC
国别 :
法国 (FR)
星等 :
--
轨道信息
数据来源 国际轨道数据 AOE轨道数据
星历时间 2026-07-13T19:33:08+0800
20小时前
查看轨道信息
2026-07-12T02:00:00+0800
2天前
查看轨道信息
半长轴 7024.364km 7024.376km
偏心率 0.0013116 0.0013408
轨道倾角 98.503° 98.502°
近地点辐角 304.887° 310.506°
升交点赤经 27.523° 25.706°
平近点角 55.110° 223.645°
近地点 637.013km 636.82km
远地点 655.441km 655.658km
周期 97.650分钟 97.650分钟
每日圈数 14.746614 14.746576
详细信息
使用方式:
暂无
2D轨道图
3D轨道图
轨道高度分析图
轨道倾角分析图
轨道综合分析图
查看轨道综合分析图